Time,TemperatureF,DewpointF,PressureIn,WindDirection,WindDirectionDegrees,WindSpeedMPH,WindSpeedGustMPH,Humidity,HourlyPrecipIn,Conditions,Clouds,dailyrainin,SoftwareType,DateUTC
2013-06-20 00:01:00,72.0,56.9,29.62,ENE,68,1.1,2.2,59,0.00,,,0.00,WUHU216HW,2013-06-20 05:01:00,
2013-06-20 00:06:00,71.8,56.7,29.62,East,90,0.7,2.2,59,0.00,,,0.00,WUHU216HW,2013-06-20 05:06:00,
2013-06-20 00:11:00,71.6,56.5,29.62,ENE,68,0.7,2.0,59,0.00,,,0.00,WUHU216HW,2013-06-20 05:11:00,
2013-06-20 00:16:00,71.6,56.5,29.63,ENE,68,1.3,2.0,59,0.00,,,0.00,WUHU216HW,2013-06-20 05:16:00,
2013-06-20 00:21:00,71.5,56.9,29.62,East,90,0.9,1.6,60,0.00,,,0.00,WUHU216HW,2013-06-20 05:21:00,
2013-06-20 00:26:00,71.3,56.7,29.62,East,90,0.9,1.6,60,0.00,,,0.00,WUHU216HW,2013-06-20 05:26:00,
2013-06-20 00:31:00,71.1,56.6,29.62,East,90,0.9,1.6,60,0.00,,,0.00,WUHU216HW,2013-06-20 05:31:00,
2013-06-20 00:36:00,71.1,57.0,29.63,ESE,113,1.3,1.6,61,0.00,,,0.00,WUHU216HW,2013-06-20 05:36:00,
2013-06-20 00:41:00,70.9,56.4,29.63,ENE,68,0.4,1.3,60,0.00,,,0.00,WUHU216HW,2013-06-20 05:41:00,
2013-06-20 00:46:00,70.7,56.7,29.63,SE,135,0.0,1.3,61,0.00,,,0.00,WUHU216HW,2013-06-20 05:46:00,
2013-06-20 00:51:00,70.7,56.7,29.63,NE,45,0.7,0.7,61,0.00,,,0.00,WUHU216HW,2013-06-20 05:51:00,
2013-06-20 00:56:00,70.6,56.5,29.63,SE,135,1.3,1.3,61,0.00,,,0.00,WUHU216HW,2013-06-20 05:56:00,
2013-06-20 01:01:00,70.2,56.6,29.63,NE,45,1.1,1.3,62,0.00,,,0.00,WUHU216HW,2013-06-20 06:01:00,
2013-06-20 01:06:00,70.2,56.6,29.63,ENE,68,1.3,1.3,62,0.00,,,0.00,WUHU216HW,2013-06-20 06:06:00,
2013-06-20 01:11:00,70.0,56.4,29.63,ENE,68,0.4,1.3,62,0.00,,,0.00,WUHU216HW,2013-06-20 06:11:00,
2013-06-20 01:16:00,69.8,56.3,29.63,East,90,0.9,1.6,62,0.00,,,0.00,WUHU216HW,2013-06-20 06:16:00,
2013-06-20 01:21:00,69.7,56.5,29.63,ESE,113,0.4,1.6,63,0.00,,,0.00,WUHU216HW,2013-06-20 06:21:00,
2013-06-20 01:26:00,69.7,56.9,29.63,East,90,1.1,1.3,64,0.00,,,0.00,WUHU216HW,2013-06-20 06:26:00,
2013-06-20 01:31:00,69.5,56.8,29.63,ESE,113,1.1,1.3,64,0.00,,,0.00,WUHU216HW,2013-06-20 06:31:00,
2013-06-20 01:36:00,69.5,56.8,29.63,ESE,113,0.7,1.1,64,0.00,,,0.00,WUHU216HW,2013-06-20 06:36:00,
2013-06-20 01:41:00,69.3,56.6,29.63,SE,135,1.1,1.1,64,0.00,,,0.00,WUHU216HW,2013-06-20 06:41:00,
2013-06-20 01:46:00,69.1,56.8,29.63,ESE,113,0.7,1.3,65,0.00,,,0.00,WUHU216HW,2013-06-20 06:46:00,
2013-06-20 01:51:00,69.1,56.8,29.63,ENE,68,1.1,1.3,65,0.00,,,0.00,WUHU216HW,2013-06-20 06:51:00,
2013-06-20 01:55:00,68.9,56.7,29.63,ENE,68,0.4,1.3,65,0.00,,,0.00,WUHU216HW,2013-06-20 06:55:00,
2013-06-20 02:00:00,68.9,57.1,29.63,ENE,68,0.4,1.1,66,0.00,,,0.00,WUHU216HW,2013-06-20 07:00:00,
2013-06-20 02:05:00,68.9,57.1,29.63,North,0,0.0,0.4,66,0.00,,,0.00,WUHU216HW,2013-06-20 07:05:00,
2013-06-20 02:10:00,68.9,57.1,29.63,North,0,0.0,0.0,66,0.00,,,0.00,WUHU216HW,2013-06-20 07:10:00,
2013-06-20 02:15:00,68.9,57.5,29.63,North,0,0.0,0.0,67,0.00,,,0.00,WUHU216HW,2013-06-20 07:15:00,
2013-06-20 02:21:00,68.9,57.5,29.63,North,0,0.0,0.0,67,0.00,,,0.00,WUHU216HW,2013-06-20 07:21:00,
2013-06-20 02:25:00,68.8,57.3,29.63,North,0,0.0,0.0,67,0.00,,,0.00,WUHU216HW,2013-06-20 07:25:00,
2013-06-20 02:30:00,68.8,57.8,29.63,North,0,0.0,0.0,68,0.00,,,0.00,WUHU216HW,2013-06-20 07:30:00,
2013-06-20 02:35:00,68.6,58.1,29.63,North,0,0.0,0.0,69,0.00,,,0.00,WUHU216HW,2013-06-20 07:35:00,
2013-06-20 02:46:00,68.4,58.3,29.63,North,0,0.0,0.0,70,0.00,,,0.00,WUHU216HW,2013-06-20 07:46:00,
2013-06-20 02:51:00,68.4,58.3,29.63,North,0,0.0,0.0,70,0.00,,,0.00,WUHU216HW,2013-06-20 07:51:00,
2013-06-20 02:56:00,68.4,58.3,29.63,North,0,0.0,0.0,70,0.00,,,0.00,WUHU216HW,2013-06-20 07:56:00,
2013-06-20 03:01:00,68.2,58.2,29.63,North,0,0.0,0.0,70,0.00,,,0.00,WUHU216HW,2013-06-20 08:01:00,
2013-06-20 03:06:00,68.2,58.5,29.64,North,0,0.0,0.0,71,0.00,,,0.00,WUHU216HW,2013-06-20 08:06:00,
2013-06-20 03:11:00,68.0,58.3,29.64,North,0,0.0,0.0,71,0.00,,,0.00,WUHU216HW,2013-06-20 08:11:00,
2013-06-20 03:16:00,68.0,58.3,29.64,North,0,0.0,0.0,71,0.00,,,0.00,WUHU216HW,2013-06-20 08:16:00,
2013-06-20 03:21:00,68.0,58.7,29.64,ESE,113,1.1,1.1,72,0.00,,,0.00,WUHU216HW,2013-06-20 08:21:00,
2013-06-20 03:26:00,68.0,58.7,29.64,SE,135,0.7,1.1,72,0.00,,,0.00,WUHU216HW,2013-06-20 08:26:00,
2013-06-20 03:31:00,68.0,58.7,29.64,North,0,0.0,1.1,72,0.00,,,0.00,WUHU216HW,2013-06-20 08:31:00,
2013-06-20 03:36:00,67.9,58.5,29.64,ESE,113,0.4,0.7,72,0.00,,,0.00,WUHU216HW,2013-06-20 08:36:00,
2013-06-20 03:41:00,67.9,58.5,29.64,North,0,0.0,0.4,72,0.00,,,0.00,WUHU216HW,2013-06-20 08:41:00,
2013-06-20 03:46:00,67.9,58.5,29.64,SE,135,0.7,0.7,72,0.00,,,0.00,WUHU216HW,2013-06-20 08:46:00,
2013-06-20 03:51:00,67.7,58.3,29.65,South,180,1.1,1.1,72,0.00,,,0.00,WUHU216HW,2013-06-20 08:51:00,
2013-06-20 03:56:00,67.7,58.8,29.64,ESE,113,0.4,1.1,73,0.00,,,0.00,WUHU216HW,2013-06-20 08:56:00,
2013-06-20 04:01:00,67.7,58.8,29.65,SE,135,0.4,1.1,73,0.00,,,0.00,WUHU216HW,2013-06-20 09:01:00,
2013-06-20 04:06:00,67.7,58.8,29.65,ESE,113,0.0,1.1,73,0.00,,,0.00,WUHU216HW,2013-06-20 09:06:00,
2013-06-20 04:11:00,67.5,58.6,29.65,ESE,113,0.7,1.1,73,0.00,,,0.00,WUHU216HW,2013-06-20 09:11:00,
2013-06-20 04:16:00,67.5,59.0,29.64,East,90,0.0,0.7,74,0.00,,,0.00,WUHU216HW,2013-06-20 09:16:00,
2013-06-20 04:21:00,67.5,59.0,29.64,ESE,113,0.0,0.7,74,0.00,,,0.00,WUHU216HW,2013-06-20 09:21:00,
2013-06-20 04:26:00,67.3,58.8,29.64,SE,135,0.7,0.7,74,0.00,,,0.00,WUHU216HW,2013-06-20 09:26:00,
2013-06-20 04:31:00,67.3,58.8,29.65,SE,135,0.9,0.9,74,0.00,,,0.00,WUHU216HW,2013-06-20 09:31:00,
2013-06-20 04:36:00,67.3,58.8,29.64,ESE,113,0.4,1.1,74,0.00,,,0.00,WUHU216HW,2013-06-20 09:36:00,
2013-06-20 04:41:00,67.3,59.1,29.64,East,90,0.4,1.1,75,0.00,,,0.00,WUHU216HW,2013-06-20 09:41:00,
2013-06-20 04:46:00,67.3,58.8,29.65,ESE,113,0.0,0.7,74,0.00,,,0.00,WUHU216HW,2013-06-20 09:46:00,
2013-06-20 04:51:00,67.3,58.8,29.65,SE,135,0.7,0.7,74,0.00,,,0.00,WUHU216HW,2013-06-20 09:51:00,
2013-06-20 04:56:00,67.3,59.1,29.65,SE,135,1.1,1.6,75,0.00,,,0.00,WUHU216HW,2013-06-20 09:56:00,
2013-06-20 05:01:00,67.3,59.1,29.65,ESE,113,1.8,1.8,75,0.00,,,0.00,WUHU216HW,2013-06-20 10:01:00,
2013-06-20 05:06:00,67.3,59.5,29.65,ESE,113,1.1,1.8,76,0.00,,,0.00,WUHU216HW,2013-06-20 10:06:00,
2013-06-20 05:11:00,67.3,59.5,29.65,SE,135,0.4,1.8,76,0.00,,,0.00,WUHU216HW,2013-06-20 10:11:00,
2013-06-20 05:16:00,67.3,59.5,29.65,ESE,113,0.9,1.3,76,0.00,,,0.00,WUHU216HW,2013-06-20 10:16:00,
2013-06-20 05:21:00,67.3,59.5,29.65,ESE,113,1.1,1.3,76,0.00,,,0.00,WUHU216HW,2013-06-20 10:21:00,
2013-06-20 05:26:00,67.3,59.5,29.66,East,90,0.4,1.3,76,0.00,,,0.00,WUHU216HW,2013-06-20 10:26:00,
2013-06-20 05:31:00,67.3,59.5,29.66,SE,135,0.7,1.1,76,0.00,,,0.00,WUHU216HW,2013-06-20 10:31:00,
2013-06-20 05:36:00,67.3,59.5,29.66,SE,135,1.3,1.6,76,0.00,,,0.00,WUHU216HW,2013-06-20 10:36:00,
2013-06-20 05:41:00,67.3,59.5,29.66,SE,135,1.3,1.6,76,0.00,,,0.00,WUHU216HW,2013-06-20 10:41:00,
2013-06-20 05:46:00,67.3,59.5,29.66,SE,135,1.3,1.3,76,0.00,,,0.00,WUHU216HW,2013-06-20 10:46:00,
2013-06-20 06:00:00,67.3,59.5,29.66,SE,135,1.1,1.1,76,0.00,,,0.00,WUHU216HW,2013-06-20 11:00:00,
2013-06-20 06:05:00,67.3,59.9,29.66,SE,135,0.7,1.6,77,0.00,,,0.00,WUHU216HW,2013-06-20 11:05:00,
2013-06-20 06:10:00,67.3,59.9,29.66,SE,135,1.1,1.6,77,0.00,,,0.00,WUHU216HW,2013-06-20 11:10:00,
2013-06-20 06:15:00,67.3,59.9,29.66,SE,135,1.1,1.1,77,0.00,,,0.00,WUHU216HW,2013-06-20 11:15:00,
2013-06-20 06:20:00,67.3,59.9,29.66,ESE,113,0.9,1.1,77,0.00,,,0.00,WUHU216HW,2013-06-20 11:20:00,
2013-06-20 06:25:00,67.3,59.9,29.66,ESE,113,1.1,1.1,77,0.00,,,0.00,WUHU216HW,2013-06-20 11:25:00,
2013-06-20 06:30:00,67.5,60.0,29.66,SE,135,0.7,1.1,77,0.00,,,0.00,WUHU216HW,2013-06-20 11:30:00,
2013-06-20 06:35:00,67.5,60.0,29.66,ENE,68,0.9,1.8,77,0.00,,,0.00,WUHU216HW,2013-06-20 11:35:00,
2013-06-20 06:40:00,67.9,60.4,29.67,SE,135,0.9,1.8,77,0.00,,,0.00,WUHU216HW,2013-06-20 11:40:00,
2013-06-20 06:45:00,68.0,60.6,29.67,SE,135,0.4,1.8,77,0.00,,,0.00,WUHU216HW,2013-06-20 11:45:00,
2013-06-20 06:50:00,68.4,60.9,29.67,ESE,113,1.1,1.8,77,0.00,,,0.00,WUHU216HW,2013-06-20 11:50:00,
2013-06-20 06:55:00,68.9,61.4,29.67,SE,135,1.3,1.8,77,0.00,,,0.00,WUHU216HW,2013-06-20 11:55:00,
2013-06-20 07:00:00,69.5,61.9,29.67,SE,135,1.8,2.7,77,0.00,,,0.00,WUHU216HW,2013-06-20 12:00:00,
2013-06-20 07:05:00,69.8,62.2,29.67,SE,135,1.8,2.7,77,0.00,,,0.00,WUHU216HW,2013-06-20 12:05:00,
2013-06-20 07:10:00,70.2,62.2,29.67,SE,135,2.0,2.2,76,0.00,,,0.00,WUHU216HW,2013-06-20 12:10:00,
2013-06-20 07:15:00,70.6,62.6,29.68,ESE,113,1.3,2.2,76,0.00,,,0.00,WUHU216HW,2013-06-20 12:15:00,
2013-06-20 07:20:00,71.1,63.1,29.68,SE,135,2.9,2.9,76,0.00,,,0.00,WUHU216HW,2013-06-20 12:20:00,
2013-06-20 07:25:00,71.6,63.3,29.68,ESE,113,2.5,2.9,75,0.00,,,0.00,WUHU216HW,2013-06-20 12:25:00,
2013-06-20 07:30:00,72.2,63.8,29.67,SE,135,2.5,2.9,75,0.00,,,0.00,WUHU216HW,2013-06-20 12:30:00,
2013-06-20 07:35:00,72.5,64.2,29.68,SSE,158,1.6,2.7,75,0.00,,,0.00,WUHU216HW,2013-06-20 12:35:00,
2013-06-20 07:40:00,73.1,64.7,29.68,ESE,113,1.8,2.7,75,0.00,,,0.00,WUHU216HW,2013-06-20 12:40:00,
2013-06-20 07:45:00,73.3,64.9,29.68,SE,135,1.8,3.4,75,0.00,,,0.00,WUHU216HW,2013-06-20 12:45:00,
2013-06-20 07:50:00,73.8,65.1,29.68,SE,135,1.6,3.4,74,0.00,,,0.00,WUHU216HW,2013-06-20 12:50:00,
2013-06-20 07:55:00,74.3,65.5,29.68,SE,135,2.2,3.4,74,0.00,,,0.00,WUHU216HW,2013-06-20 12:55:00,
2013-06-20 08:00:00,74.9,65.6,29.68,ENE,68,2.5,3.4,73,0.00,,,0.00,WUHU216HW,2013-06-20 13:00:00,
2013-06-20 08:05:00,75.2,65.6,29.68,SE,135,2.9,3.1,72,0.00,,,0.00,WUHU216HW,2013-06-20 13:05:00,
2013-06-20 08:10:00,75.6,66.0,29.68,SSE,158,3.1,3.4,72,0.00,,,0.00,WUHU216HW,2013-06-20 13:10:00,
2013-06-20 08:15:00,76.0,65.9,29.68,SE,135,3.4,3.6,71,0.00,,,0.00,WUHU216HW,2013-06-20 13:15:00,
2013-06-20 08:20:00,76.5,66.4,29.68,SE,135,2.2,3.6,71,0.00,,,0.00,WUHU216HW,2013-06-20 13:20:00,
2013-06-20 08:25:00,76.9,66.8,29.68,SE,135,2.5,3.6,71,0.00,,,0.00,WUHU216HW,2013-06-20 13:25:00,
2013-06-20 08:30:00,77.4,67.0,29.68,SSE,158,1.8,2.9,70,0.00,,,0.00,WUHU216HW,2013-06-20 13:30:00,
2013-06-20 08:35:00,77.8,67.2,29.68,ESE,113,1.3,2.9,70,0.00,,,0.00,WUHU216HW,2013-06-20 13:35:00,
2013-06-20 08:40:00,78.5,67.5,29.68,South,180,4.0,4.0,69,0.00,,,0.00,WUHU216HW,2013-06-20 13:40:00,
2013-06-20 08:45:00,78.8,67.8,29.68,SW,225,2.5,4.0,69,0.00,,,0.00,WUHU216HW,2013-06-20 13:45:00,
2013-06-20 08:50:00,79.4,67.9,29.68,SE,135,1.3,2.9,68,0.00,,,0.00,WUHU216HW,2013-06-20 13:50:00,
2013-06-20 08:55:00,79.9,68.0,29.68,North,0,0.0,1.8,67,0.00,,,0.00,WUHU216HW,2013-06-20 13:55:00,
2013-06-20 09:00:00,80.3,67.9,29.69,SE,135,2.5,2.5,66,0.00,,,0.00,WUHU216HW,2013-06-20 14:00:00,
2013-06-20 09:05:00,80.5,68.0,29.69,North,0,0.0,2.5,66,0.00,,,0.00,WUHU216HW,2013-06-20 14:05:00,
2013-06-20 09:10:00,80.8,68.4,29.69,SSE,158,3.4,3.4,66,0.00,,,0.00,WUHU216HW,2013-06-20 14:10:00,
2013-06-20 09:15:00,81.0,68.1,29.69,SE,135,2.9,3.4,65,0.00,,,0.00,WUHU216HW,2013-06-20 14:15:00,
2013-06-20 09:19:00,81.5,68.1,29.69,SE,135,1.8,2.9,64,0.00,,,0.00,WUHU216HW,2013-06-20 14:19:00,
2013-06-20 09:25:00,84.4,69.6,29.69,SSE,158,2.2,2.9,61,0.00,,,0.00,WUHU216HW,2013-06-20 14:25:00,
2013-06-20 09:29:00,85.0,70.0,29.68,WSW,248,0.4,3.4,61,0.00,,,0.00,WUHU216HW,2013-06-20 14:29:00,
2013-06-20 09:34:00,84.6,69.8,29.69,North,0,0.0,3.4,61,0.00,,,0.00,WUHU216HW,2013-06-20 14:34:00,
2013-06-20 09:39:00,84.4,68.6,29.69,North,0,0.0,0.4,59,0.00,,,0.00,WUHU216HW,2013-06-20 14:39:00,
2013-06-20 09:44:00,84.6,68.2,29.69,North,0,0.0,0.0,58,0.00,,,0.00,WUHU216HW,2013-06-20 14:44:00,
2013-06-20 09:49:00,86.6,68.0,29.68,North,0,0.0,0.0,54,0.00,,,0.00,WUHU216HW,2013-06-20 14:49:00,
2013-06-20 09:54:00,87.5,68.8,29.68,North,0,0.0,0.0,54,0.00,,,0.00,WUHU216HW,2013-06-20 14:54:00,
2013-06-20 09:59:00,86.6,68.0,29.68,North,0,0.0,0.0,54,0.00,,,0.00,WUHU216HW,2013-06-20 14:59:00,
2013-06-20 10:04:00,86.0,68.0,29.68,North,0,0.0,0.0,55,0.00,,,0.00,WUHU216HW,2013-06-20 15:04:00,
2013-06-20 10:09:00,86.0,67.4,29.68,North,0,0.0,0.0,54,0.00,,,0.00,WUHU216HW,2013-06-20 15:09:00,
2013-06-20 10:14:00,87.1,66.9,29.68,North,0,0.0,0.0,51,0.00,,,0.00,WUHU216HW,2013-06-20 15:14:00,
2013-06-20 10:19:00,87.8,67.5,29.68,North,0,0.0,0.0,51,0.00,,,0.00,WUHU216HW,2013-06-20 15:19:00,
2013-06-20 10:24:00,86.9,66.7,29.68,North,0,0.0,0.0,51,0.00,,,0.00,WUHU216HW,2013-06-20 15:24:00,
2013-06-20 10:29:00,86.2,66.5,29.68,North,0,0.0,0.0,52,0.00,,,0.00,WUHU216HW,2013-06-20 15:29:00,
2013-06-20 10:33:00,86.0,65.9,29.68,North,0,0.0,0.0,51,0.00,,,0.00,WUHU216HW,2013-06-20 15:33:00,
2013-06-20 10:34:00,86.0,65.9,29.68,North,0,0.0,0.0,51,0.00,,,0.00,WUHU216HW,2013-06-20 15:34:00,
2013-06-20 10:39:00,86.0,65.9,29.68,North,0,0.0,0.0,51,0.00,,,0.00,WUHU216HW,2013-06-20 15:39:00,
2013-06-20 11:00:00,88.2,65.3,29.68,WSW,248,3.4,3.4,47,0.00,,,0.00,WUHU216HW,2013-06-20 16:00:00,
2013-06-20 11:05:00,89.6,64.7,29.68,SW,225,2.9,3.4,44,0.00,,,0.00,WUHU216HW,2013-06-20 16:05:00,
2013-06-20 11:10:00,90.4,66.6,29.68,SSE,158,3.1,3.1,46,0.00,,,0.00,WUHU216HW,2013-06-20 16:10:00,
2013-06-20 11:15:00,90.0,66.3,29.68,North,0,0.0,3.1,46,0.00,,,0.00,WUHU216HW,2013-06-20 16:15:00,
2013-06-20 11:20:00,88.9,65.3,29.68,SSE,158,3.4,3.4,46,0.00,,,0.00,WUHU216HW,2013-06-20 16:20:00,
2013-06-20 11:25:00,89.1,64.9,29.68,East,90,1.3,4.7,45,0.00,,,0.00,WUHU216HW,2013-06-20 16:25:00,
2013-06-20 11:30:00,89.6,66.0,29.67,SSW,203,2.2,4.7,46,0.00,,,0.00,WUHU216HW,2013-06-20 16:30:00,
2013-06-20 11:35:00,89.5,65.8,29.67,ESE,113,3.8,4.3,46,0.00,,,0.00,WUHU216HW,2013-06-20 16:35:00,
2013-06-20 11:40:00,89.1,65.5,29.67,ESE,113,3.4,4.3,46,0.00,,,0.00,WUHU216HW,2013-06-20 16:40:00,
2013-06-20 11:45:00,90.0,65.7,29.67,SE,135,2.5,4.5,45,0.00,,,0.00,WUHU216HW,2013-06-20 16:45:00,
2013-06-20 11:50:00,90.7,66.3,29.67,SE,135,3.1,4.5,45,0.00,,,0.00,WUHU216HW,2013-06-20 16:50:00,
2013-06-20 11:55:00,91.3,65.5,29.67,SW,225,2.5,4.0,43,0.00,,,0.00,WUHU216HW,2013-06-20 16:55:00,
2013-06-20 12:00:00,91.8,64.7,29.67,North,0,0.0,4.0,41,0.00,,,0.00,WUHU216HW,2013-06-20 17:00:00,
2013-06-20 12:05:00,91.8,66.0,29.67,SSE,158,4.0,4.0,43,0.00,,,0.00,WUHU216HW,2013-06-20 17:05:00,
2013-06-20 12:10:00,91.1,64.7,29.67,SE,135,2.9,4.0,42,0.00,,,0.00,WUHU216HW,2013-06-20 17:10:00,
2013-06-20 12:15:00,91.3,65.5,29.67,SW,225,1.6,5.4,43,0.00,,,0.00,WUHU216HW,2013-06-20 17:15:00,
2013-06-20 12:20:00,92.3,66.5,29.67,SSE,158,1.8,5.4,43,0.00,,,0.00,WUHU216HW,2013-06-20 17:20:00,
2013-06-20 12:25:00,93.1,65.2,29.66,SW,225,4.3,4.3,40,0.00,,,0.00,WUHU216HW,2013-06-20 17:25:00,
2013-06-20 12:30:00,93.2,65.3,29.67,ESE,113,4.9,4.9,40,0.00,,,0.00,WUHU216HW,2013-06-20 17:30:00,
2013-06-20 12:34:00,92.9,65.0,29.67,West,270,2.9,4.9,40,0.00,,,0.00,WUHU216HW,2013-06-20 17:34:00,
2013-06-20 12:39:00,93.2,65.3,29.67,WSW,248,0.9,4.9,40,0.00,,,0.00,WUHU216HW,2013-06-20 17:39:00,
2013-06-20 12:44:00,93.6,65.7,29.67,East,90,1.3,3.4,40,0.00,,,0.00,WUHU216HW,2013-06-20 17:44:00,
2013-06-20 12:49:00,93.6,65.7,29.66,South,180,3.4,5.4,40,0.00,,,0.00,WUHU216HW,2013-06-20 17:49:00,
2013-06-20 12:54:00,93.1,64.4,29.66,NNE,23,2.0,5.6,39,0.00,,,0.00,WUHU216HW,2013-06-20 17:54:00,
2013-06-20 12:59:00,93.4,66.2,29.66,East,90,3.8,5.6,41,0.00,,,0.00,WUHU216HW,2013-06-20 17:59:00,
2013-06-20 13:04:00,93.6,65.7,29.66,SE,135,1.8,4.0,40,0.00,,,0.00,WUHU216HW,2013-06-20 18:04:00,
2013-06-20 13:09:00,93.4,66.2,29.66,SSE,158,5.1,5.1,41,0.00,,,0.00,WUHU216HW,2013-06-20 18:09:00,
2013-06-20 13:14:00,93.8,65.0,29.66,WNW,293,1.8,5.8,39,0.00,,,0.00,WUHU216HW,2013-06-20 18:14:00,
2013-06-20 13:19:00,93.8,65.0,29.65,West,270,1.3,5.8,39,0.00,,,0.00,WUHU216HW,2013-06-20 18:19:00,
2013-06-20 13:24:00,93.2,64.5,29.65,SW,225,1.8,4.7,39,0.00,,,0.00,WUHU216HW,2013-06-20 18:24:00,
2013-06-20 13:29:00,93.8,64.2,29.65,ESE,113,4.0,4.7,38,0.00,,,0.00,WUHU216HW,2013-06-20 18:29:00,
2013-06-20 13:34:00,94.0,65.2,29.65,SSE,158,0.9,4.9,39,0.00,,,0.00,WUHU216HW,2013-06-20 18:34:00,
2013-06-20 13:39:00,94.1,64.5,29.65,SE,135,2.0,5.8,38,0.00,,,0.00,WUHU216HW,2013-06-20 18:39:00,
2013-06-20 13:44:00,94.3,63.9,29.65,North,0,2.2,5.8,37,0.00,,,0.00,WUHU216HW,2013-06-20 18:44:00,
2013-06-20 13:49:00,94.3,63.1,29.64,SSE,158,2.0,5.4,36,0.00,,,0.00,WUHU216HW,2013-06-20 18:49:00,
2013-06-20 13:54:00,94.0,64.4,29.64,SE,135,1.8,2.5,38,0.00,,,0.00,WUHU216HW,2013-06-20 18:54:00,
2013-06-20 13:59:00,93.2,62.1,29.64,NW,315,3.4,3.4,36,0.00,,,0.00,WUHU216HW,2013-06-20 18:59:00,
2013-06-20 14:04:00,92.7,63.3,29.64,South,180,3.1,4.0,38,0.00,,,0.00,WUHU216HW,2013-06-20 19:04:00,
2013-06-20 14:09:00,92.9,65.0,29.64,SSW,203,0.4,7.4,40,0.00,,,0.00,WUHU216HW,2013-06-20 19:09:00,
2013-06-20 14:14:00,94.7,63.4,29.63,SW,225,2.5,7.4,36,0.00,,,0.00,WUHU216HW,2013-06-20 19:14:00,
2013-06-20 14:19:00,94.3,62.3,29.63,SE,135,4.0,7.2,35,0.00,,,0.00,WUHU216HW,2013-06-20 19:19:00,
2013-06-20 14:24:00,94.3,62.3,29.63,SE,135,4.0,7.2,35,0.00,,,0.00,WUHU216HW,2013-06-20 19:24:00,
2013-06-20 14:49:00,93.6,62.5,29.64,SSW,203,3.8,3.8,36,0.00,,,0.00,WUHU216HW,2013-06-20 19:49:00,
2013-06-20 14:54:00,94.3,64.7,29.63,SW,225,2.5,3.8,38,0.00,,,0.00,WUHU216HW,2013-06-20 19:54:00,
2013-06-20 14:59:00,94.9,64.4,29.64,ESE,113,2.0,3.1,37,0.00,,,0.00,WUHU216HW,2013-06-20 19:59:00,
2013-06-20 15:04:00,94.9,63.5,29.64,ESE,113,1.6,3.1,36,0.00,,,0.00,WUHU216HW,2013-06-20 20:04:00,
2013-06-20 15:09:00,94.7,63.4,29.63,ENE,68,1.8,2.7,36,0.00,,,0.00,WUHU216HW,2013-06-20 20:09:00,
2013-06-20 15:14:00,94.3,63.1,29.63,ESE,113,4.5,4.5,36,0.00,,,0.00,WUHU216HW,2013-06-20 20:14:00,
2013-06-20 15:19:00,93.6,60.9,29.63,SE,135,2.5,5.4,34,0.00,,,0.00,WUHU216HW,2013-06-20 20:19:00,
2013-06-20 15:24:00,94.0,64.4,29.63,SW,225,3.8,5.4,38,0.00,,,0.00,WUHU216HW,2013-06-20 20:24:00,
2013-06-20 15:29:00,95.8,62.7,29.63,SSE,158,2.5,5.4,34,0.00,,,0.00,WUHU216HW,2013-06-20 20:29:00,
2013-06-20 15:34:00,95.8,62.7,29.63,ENE,68,1.1,2.9,34,0.00,,,0.00,WUHU216HW,2013-06-20 20:34:00,
2013-06-20 15:39:00,94.7,61.7,29.63,East,90,2.2,3.4,34,0.00,,,0.00,WUHU216HW,2013-06-20 20:39:00,
2013-06-20 15:44:00,94.5,63.3,29.63,SSE,158,1.8,3.4,36,0.00,,,0.00,WUHU216HW,2013-06-20 20:44:00,
2013-06-20 15:49:00,95.4,63.2,29.63,SSE,158,1.3,6.5,35,0.00,,,0.00,WUHU216HW,2013-06-20 20:49:00,
2013-06-20 15:54:00,95.8,64.4,29.62,South,180,1.3,6.5,36,0.00,,,0.00,WUHU216HW,2013-06-20 20:54:00,
2013-06-20 15:59:00,95.8,64.4,29.62,South,180,1.3,4.9,36,0.00,,,0.00,WUHU216HW,2013-06-20 20:59:00,
2013-06-20 16:04:00,96.5,64.2,29.63,South,180,5.4,5.4,35,0.00,,,0.00,WUHU216HW,2013-06-20 21:04:00,
2013-06-20 16:09:00,96.1,63.0,29.62,SSW,203,4.3,5.6,34,0.00,,,0.00,WUHU216HW,2013-06-20 21:09:00,
2013-06-20 16:14:00,96.7,63.5,29.62,SE,135,4.0,5.6,34,0.00,,,0.00,WUHU216HW,2013-06-20 21:14:00,
2013-06-20 16:19:00,97.2,63.1,29.62,East,90,1.3,4.5,33,0.00,,,0.00,WUHU216HW,2013-06-20 21:19:00,
2013-06-20 16:24:00,97.6,63.5,29.62,SSW,203,5.4,5.4,33,0.00,,,0.00,WUHU216HW,2013-06-20 21:24:00,
2013-06-20 16:29:00,97.9,63.7,29.62,SSW,203,3.4,5.4,33,0.00,,,0.00,WUHU216HW,2013-06-20 21:29:00,
2013-06-20 16:34:00,97.9,62.9,29.62,SE,135,4.0,5.4,32,0.00,,,0.00,WUHU216HW,2013-06-20 21:34:00,
2013-06-20 16:39:00,97.2,63.1,29.62,SSW,203,4.9,4.9,33,0.00,,,0.00,WUHU216HW,2013-06-20 21:39:00,
2013-06-20 16:44:00,95.8,64.4,29.62,West,270,0.4,4.9,36,0.00,,,0.00,WUHU216HW,2013-06-20 21:44:00,
2013-06-20 16:49:00,96.8,61.9,29.62,South,180,2.0,4.9,32,0.00,,,0.00,WUHU216HW,2013-06-20 21:49:00,
2013-06-20 16:54:00,96.7,62.7,29.62,South,180,2.0,3.4,33,0.00,,,0.00,WUHU216HW,2013-06-20 21:54:00,
2013-06-20 16:59:00,96.5,62.5,29.62,South,180,2.5,3.4,33,0.00,,,0.00,WUHU216HW,2013-06-20 21:59:00,
2013-06-20 17:04:00,96.1,62.2,29.62,SE,135,2.0,4.7,33,0.00,,,0.00,WUHU216HW,2013-06-20 22:04:00,
2013-06-20 17:09:00,95.8,61.9,29.61,ESE,113,3.6,4.7,33,0.00,,,0.00,WUHU216HW,2013-06-20 22:09:00,
2013-06-20 17:14:00,94.7,60.9,29.61,ENE,68,1.8,4.7,33,0.00,,,0.00,WUHU216HW,2013-06-20 22:14:00,
2013-06-20 17:19:00,94.1,62.1,29.61,NW,315,4.0,4.7,35,0.00,,,0.00,WUHU216HW,2013-06-20 22:19:00,
2013-06-20 17:24:00,95.4,61.6,29.61,SSE,158,1.6,4.0,33,0.00,,,0.00,WUHU216HW,2013-06-20 22:24:00,
2013-06-20 17:29:00,96.1,63.0,29.61,SSE,158,2.7,4.0,34,0.00,,,0.00,WUHU216HW,2013-06-20 22:29:00,
2013-06-20 17:34:00,96.5,61.7,29.61,SE,135,4.7,5.1,32,0.00,,,0.00,WUHU216HW,2013-06-20 22:34:00,
2013-06-20 17:39:00,96.3,62.4,29.61,SE,135,2.5,5.1,33,0.00,,,0.00,WUHU216HW,2013-06-20 22:39:00,
2013-06-20 17:44:00,95.8,61.1,29.61,SSE,158,3.1,4.7,32,0.00,,,0.00,WUHU216HW,2013-06-20 22:44:00,
2013-06-20 17:49:00,94.5,62.5,29.61,SSW,203,3.1,3.1,35,0.00,,,0.00,WUHU216HW,2013-06-20 22:49:00,
2013-06-20 17:54:00,95.8,61.9,29.60,South,180,4.3,4.3,33,0.00,,,0.00,WUHU216HW,2013-06-20 22:54:00,
2013-06-20 17:58:00,96.5,61.7,29.60,ESE,113,3.4,4.3,32,0.00,,,0.00,WUHU216HW,2013-06-20 22:58:00,
2013-06-20 18:03:00,96.3,62.4,29.60,SE,135,4.3,4.3,33,0.00,,,0.00,WUHU216HW,2013-06-20 23:03:00,
2013-06-20 18:08:00,96.5,61.7,29.60,SW,225,5.1,5.1,32,0.00,,,0.00,WUHU216HW,2013-06-20 23:08:00,
2013-06-20 18:13:00,96.1,61.4,29.60,SE,135,3.8,5.1,32,0.00,,,0.00,WUHU216HW,2013-06-20 23:13:00,
2013-06-20 18:18:00,94.7,60.9,29.61,South,180,4.3,5.1,33,0.00,,,0.00,WUHU216HW,2013-06-20 23:18:00,
2013-06-20 18:23:00,94.0,61.1,29.61,North,0,0.0,4.3,34,0.00,,,0.00,WUHU216HW,2013-06-20 23:23:00,
2013-06-20 18:28:00,94.5,60.9,29.61,SSE,158,2.5,4.3,33,0.00,,,0.00,WUHU216HW,2013-06-20 23:28:00,
2013-06-20 18:33:00,94.0,61.1,29.61,ESE,113,2.9,4.3,34,0.00,,,0.00,WUHU216HW,2013-06-20 23:33:00,
2013-06-20 18:38:00,93.6,60.9,29.61,SSW,203,5.4,6.3,34,0.00,,,0.00,WUHU216HW,2013-06-20 23:38:00,
2013-06-20 18:43:00,92.5,59.9,29.61,SE,135,1.8,6.3,34,0.00,,,0.00,WUHU216HW,2013-06-20 23:43:00,
2013-06-20 18:48:00,91.8,60.8,29.61,ESE,113,3.6,5.4,36,0.00,,,0.00,WUHU216HW,2013-06-20 23:48:00,
2013-06-20 18:53:00,92.9,61.0,29.61,SE,135,4.5,6.3,35,0.00,,,0.00,WUHU216HW,2013-06-20 23:53:00,
2013-06-20 18:58:00,93.1,61.1,29.61,SW,225,2.7,6.3,35,0.00,,,0.00,WUHU216HW,2013-06-20 23:58:00,
2013-06-20 19:03:00,93.1,61.1,29.61,South,180,6.0,6.0,35,0.00,,,0.00,WUHU216HW,2013-06-21 00:03:00,
2013-06-20 19:08:00,93.2,62.1,29.60,SE,135,2.9,6.0,36,0.00,,,0.00,WUHU216HW,2013-06-21 00:08:00,
2013-06-20 19:13:00,92.7,61.7,29.60,SSE,158,2.9,2.9,36,0.00,,,0.00,WUHU216HW,2013-06-21 00:13:00,
2013-06-20 19:18:00,91.1,61.0,29.60,South,180,2.2,2.9,37,0.00,,,0.00,WUHU216HW,2013-06-21 00:18:00,
2013-06-20 19:23:00,90.7,62.3,29.60,SSE,158,2.7,2.9,39,0.00,,,0.00,WUHU216HW,2013-06-21 00:23:00,
2013-06-20 19:28:00,91.4,62.9,29.60,SSW,203,3.1,3.1,39,0.00,,,0.00,WUHU216HW,2013-06-21 00:28:00,
2013-06-20 19:33:00,91.4,62.9,29.60,South,180,2.2,3.4,39,0.00,,,0.00,WUHU216HW,2013-06-21 00:33:00,
2013-06-20 19:38:00,91.1,62.7,29.60,SE,135,1.3,3.4,39,0.00,,,0.00,WUHU216HW,2013-06-21 00:38:00,
2013-06-20 19:40:00,90.9,62.5,29.60,SSE,158,1.8,1.8,39,0.00,,,0.00,WUHU216HW,2013-06-21 00:40:00,
2013-06-20 19:43:00,90.9,62.5,29.60,SSE,158,1.8,1.8,39,0.00,,,0.00,WUHU216HW,2013-06-21 00:43:00,
2013-06-20 19:48:00,90.9,62.5,29.60,SSE,158,1.8,1.8,39,0.00,,,0.00,WUHU216HW,2013-06-21 00:48:00,
2013-06-20 20:00:00,88.7,62.6,29.60,SE,135,1.3,1.3,42,0.00,,,0.00,WUHU216HW,2013-06-21 01:00:00,
2013-06-20 20:05:00,88.4,62.4,29.60,SE,135,2.2,2.5,42,0.00,,,0.00,WUHU216HW,2013-06-21 01:05:00,
2013-06-20 20:10:00,87.1,61.3,29.60,ENE,68,0.7,2.5,42,0.00,,,0.00,WUHU216HW,2013-06-21 01:10:00,
2013-06-20 20:15:00,86.4,61.3,29.60,SE,135,1.1,2.0,43,0.00,,,0.00,WUHU216HW,2013-06-21 01:15:00,
2013-06-20 20:20:00,86.2,61.8,29.61,East,90,1.6,1.8,44,0.00,,,0.00,WUHU216HW,2013-06-21 01:20:00,
2013-06-20 20:25:00,86.8,62.2,29.61,SE,135,1.6,1.8,44,0.00,,,0.00,WUHU216HW,2013-06-21 01:25:00,
2013-06-20 20:30:00,86.6,61.4,29.61,SE,135,2.2,2.2,43,0.00,,,0.00,WUHU216HW,2013-06-21 01:30:00,
2013-06-20 20:35:00,85.5,60.5,29.61,SE,135,1.8,2.2,43,0.00,,,0.00,WUHU216HW,2013-06-21 01:35:00,
2013-06-20 20:40:00,85.1,62.0,29.61,SE,135,1.8,2.0,46,0.00,,,0.00,WUHU216HW,2013-06-21 01:40:00,
2013-06-20 20:45:00,85.1,62.0,29.61,SSW,203,1.1,2.2,46,0.00,,,0.00,WUHU216HW,2013-06-21 01:45:00,
2013-06-20 20:50:00,85.3,61.6,29.61,ENE,68,2.0,2.9,45,0.00,,,0.00,WUHU216HW,2013-06-21 01:50:00,
2013-06-20 20:55:00,84.2,60.6,29.61,South,180,1.1,2.9,45,0.00,,,0.00,WUHU216HW,2013-06-21 01:55:00,
2013-06-20 21:00:00,83.2,60.8,29.61,SE,135,2.0,3.1,47,0.00,,,0.00,WUHU216HW,2013-06-21 02:00:00,
2013-06-20 21:05:00,83.3,60.9,29.61,SE,135,2.0,3.1,47,0.00,,,0.00,WUHU216HW,2013-06-21 02:05:00,
2013-06-20 21:10:00,83.5,61.1,29.61,East,90,1.8,2.5,47,0.00,,,0.00,WUHU216HW,2013-06-21 02:10:00,
2013-06-20 21:15:00,83.0,60.6,29.61,ESE,113,1.3,2.5,47,0.00,,,0.00,WUHU216HW,2013-06-21 02:15:00,
2013-06-20 21:20:00,82.3,60.6,29.62,SSE,158,3.4,3.4,48,0.00,,,0.00,WUHU216HW,2013-06-21 02:20:00,
2013-06-20 21:25:00,82.6,61.5,29.62,ENE,68,2.0,3.4,49,0.00,,,0.00,WUHU216HW,2013-06-21 02:25:00,
2013-06-20 21:30:00,83.7,61.3,29.62,South,180,2.7,3.4,47,0.00,,,0.00,WUHU216HW,2013-06-21 02:30:00,
2013-06-20 21:35:00,83.2,60.8,29.62,SE,135,2.2,3.4,47,0.00,,,0.00,WUHU216HW,2013-06-21 02:35:00,
2013-06-20 21:40:00,82.1,60.4,29.63,SSE,158,1.3,2.9,48,0.00,,,0.00,WUHU216HW,2013-06-21 02:40:00,
2013-06-20 21:45:00,81.7,60.7,29.63,SE,135,1.8,2.7,49,0.00,,,0.00,WUHU216HW,2013-06-21 02:45:00,
2013-06-20 21:50:00,82.1,61.0,29.63,ESE,113,2.5,2.7,49,0.00,,,0.00,WUHU216HW,2013-06-21 02:50:00,
2013-06-20 21:55:00,82.3,60.6,29.63,SE,135,1.1,2.5,48,0.00,,,0.00,WUHU216HW,2013-06-21 02:55:00,
2013-06-20 22:00:00,81.7,60.7,29.63,ESE,113,0.9,1.8,49,0.00,,,0.00,WUHU216HW,2013-06-21 03:00:00,
2013-06-20 22:05:00,81.0,60.7,29.63,SE,135,1.3,2.5,50,0.00,,,0.00,WUHU216HW,2013-06-21 03:05:00,
2013-06-20 22:10:00,81.0,61.1,29.63,SE,135,1.1,2.5,51,0.00,,,0.00,WUHU216HW,2013-06-21 03:10:00,
2013-06-20 22:15:00,81.7,61.3,29.64,East,90,1.1,2.2,50,0.00,,,0.00,WUHU216HW,2013-06-21 03:15:00,
2013-06-20 22:20:00,81.2,60.8,29.63,ESE,113,1.3,2.2,50,0.00,,,0.00,WUHU216HW,2013-06-21 03:20:00,
2013-06-20 22:25:00,80.3,60.5,29.64,SSE,158,1.3,1.8,51,0.00,,,0.00,WUHU216HW,2013-06-21 03:25:00,
2013-06-20 22:30:00,79.6,60.4,29.64,SE,135,2.2,3.4,52,0.00,,,0.00,WUHU216HW,2013-06-21 03:30:00,
2013-06-20 22:35:00,79.0,60.4,29.64,SE,135,2.0,3.4,53,0.00,,,0.00,WUHU216HW,2013-06-21 03:35:00,
2013-06-20 22:40:00,80.1,61.4,29.64,SSE,158,2.7,2.7,53,0.00,,,0.00,WUHU216HW,2013-06-21 03:40:00,
2013-06-20 22:45:00,80.1,60.8,29.64,SE,135,1.6,2.7,52,0.00,,,0.00,WUHU216HW,2013-06-21 03:45:00,
2013-06-20 22:50:00,79.4,60.8,29.63,ESE,113,1.8,2.5,53,0.00,,,0.00,WUHU216HW,2013-06-21 03:50:00,
2013-06-20 22:55:00,78.7,60.6,29.64,SE,135,1.3,3.1,54,0.00,,,0.00,WUHU216HW,2013-06-21 03:55:00,
2013-06-20 23:00:00,78.3,60.8,29.64,SE,135,1.1,3.1,55,0.00,,,0.00,WUHU216HW,2013-06-21 04:00:00,
2013-06-20 23:01:00,78.3,60.8,29.64,SE,135,1.3,3.1,55,0.00,,,0.00,WUHU216HW,2013-06-21 04:01:00,
2013-06-20 23:06:00,78.1,60.6,29.64,SE,135,2.2,2.2,55,0.00,,,0.00,WUHU216HW,2013-06-21 04:06:00,
2013-06-20 23:11:00,77.8,60.8,29.65,SE,135,1.1,2.2,56,0.00,,,0.00,WUHU216HW,2013-06-21 04:11:00,
2013-06-20 23:16:00,78.1,61.7,29.65,SE,135,1.1,1.8,57,0.00,,,0.00,WUHU216HW,2013-06-21 04:16:00,
2013-06-20 23:21:00,79.0,61.5,29.65,SSE,158,0.7,2.2,55,0.00,,,0.00,WUHU216HW,2013-06-21 04:21:00,
2013-06-20 23:26:00,79.0,60.9,29.65,SE,135,0.9,2.2,54,0.00,,,0.00,WUHU216HW,2013-06-21 04:26:00,
2013-06-20 23:31:00,78.5,60.9,29.65,ENE,68,0.7,1.8,55,0.00,,,0.00,WUHU216HW,2013-06-21 04:31:00,
2013-06-20 23:36:00,77.9,60.5,29.65,SE,135,0.9,1.8,55,0.00,,,0.00,WUHU216HW,2013-06-21 04:36:00,
2013-06-20 23:41:00,77.6,60.6,29.65,ESE,113,1.1,1.8,56,0.00,,,0.00,WUHU216HW,2013-06-21 04:41:00,
2013-06-20 23:46:00,77.4,60.9,29.65,ESE,113,1.1,2.2,57,0.00,,,0.00,WUHU216HW,2013-06-21 04:46:00,
2013-06-20 23:51:00,77.0,60.6,29.64,SE,135,1.3,2.5,57,0.00,,,0.00,WUHU216HW,2013-06-21 04:51:00,
2013-06-20 23:56:00,77.0,61.1,29.64,SSE,158,1.3,3.4,58,0.00,,,0.00,WUHU216HW,2013-06-21 04:56:00,